Hourly Data Report for September 11, 2010

PETERBOROUGH AWOS
ONTARIO

44°14'00.000" N
78°22'00.000" W
191.40 m
6166420

Download Data

Hourly Data (September 2010)
Hourly Data Report for September 11, 2010
TIME
LST
Temp Definition
°C
Dew Point Definition
°C
Rel Hum Definition
%
Precip. Amount Definition
mm

Wind Dir Definition
10's deg

Wind Spd Definition
km/h
Visibility Definition
km
Stn Press Definition
kPa
Hmdx Definition


Wind Chill Definition


Weather Definition


00:00 7.1 7.1 100   LegendMM LegendMM 15.0 99.54      
01:00 6.1 6.1 100   LegendMM LegendMM 15.0 99.53      
02:00 5.4 5.4 100   LegendMM LegendMM 0.6 99.48      
03:00 5.5 5.5 100   LegendMM LegendMM 15.0 99.49      
04:00 5.2 5.2 100   LegendMM LegendMM 15.0 99.49      
05:00 4.8 4.8 100   LegendMM LegendMM 15.0 99.50      
06:00 4.9 4.9 100   LegendMM LegendMM 15.0 99.56      
07:00 7.6 7.6 100   LegendMM LegendMM 15.0 99.59      
08:00 12.5 10.6 88   LegendMM LegendMM 15.0 99.58      
09:00 15.3 11.0 76   LegendMM LegendMM 15.0 99.57      
10:00 17.7 12.0 69   LegendMM LegendMM 15.0 99.51      
11:00 20.3 9.6 50   LegendMM LegendMM 15.0 99.46      
12:00 20.2 9.1 49   LegendMM LegendMM 15.0 99.40      
13:00 20.5 11.0 54   LegendMM LegendMM 15.0 99.34      
14:00 20.4 9.7 50   LegendMM LegendMM 15.0 99.27      
15:00 20.6 10.0 51   LegendMM LegendMM 15.0 99.21      
16:00 19.1 9.7 54   LegendMM LegendMM 15.0 99.15      
17:00 18.4 7.7 50   LegendMM LegendMM 15.0 99.07      
18:00 17.2 8.3 56   LegendMM LegendMM 15.0 99.05      
19:00 14.2 10.8 80   LegendMM LegendMM 15.0 99.06      
20:00 14.7 9.8 72   LegendMM LegendMM 15.0 99.07      
21:00 14.9 9.3 69   LegendMM LegendMM 15.0 99.04      
22:00 14.2 9.6 74   LegendMM LegendMM 15.0 99.00      
23:00 14.9 9.3 69   LegendMM LegendMM 15.0 98.92      

Notes on Data Quality.

Legend

  • E = Estimated
  • M = Missing
  • NA = Not Available*
  • [empty] = Indicates an unobserved value
Date modified: